User: anonymous
Location: Lawrence
(38.9720°N, 95.2350°W)
Time: 23:29:22
(UTC-05:00)
Language:

JAS-1B - Orbit

View from above orbital plane
View from above orbital plane
View from above satellite
View from above satellite

Ground track
Ground track

The orbit data is extracted from the following two-line orbital elements,

1 20480U 90013C   14213.80793250 -.00000026  00000-0  22153-4 0  7985
2 20480 099.0475 168.3734 0539503 250.4203 178.8845 12.83394612146981
Epoch (UTC): 01 August 2014 19:23:25
Eccentricity: 0.0539503
inclination: 99.0475°
perigee height: 912 km
apogee height: 1743 km
right ascension of ascending node: 168.3734°
argument of perigee: 250.4203°
revolutions per day: 12.83394612
mean anomaly at epoch: 178.8845°
orbit number at epoch: 14698

The dashed part of the orbit path shows where the satellite is in the earth's shadow,  

DLR